[[{"header":{"parameterUnit":"m.s-1","parameterCategory":1,"la1":30.2991,"la2":30.254,"lo1":-89.0895,"lo2":-89.0444,"dy":0.0017,"dx":0.0017,"nx":28,"ny":28,"refTime":"2024-09-29T03:00:00:Z","depth":0,"parameterNumber":2,"parameterNumberName":"U-component_of_WINDS"},"data":[0,0,0,0,0,0,0,0,0,0,0,0,0,0,0,0,0,0,0,0,0,0,0,0,0,0,0,0,0,0,0,0,0,0,0,0,0,0,0,0,0,0,0,0,0,0,0,0,0,0,0,0,0,0,0,0,0,0,5.2119,5.212,0,5.2146,5.2146,5.2147,5.2082,5.208,5.2078,5.2076,5.2104,5.2107,5.211,0,0,0,0,0,0,0,0,0,0,0,0,0,5.2015,5.2017,5.2119,5.212,5.212,5.2146,5.2146,5.2147,5.2082,5.208,5.2078,5.2075,5.2103,5.2107,5.211,0,0,0,0,0,0,0,0,0,0,0,0,0,5.2053,5.2018,5.2119,5.2091,5.2089,5.2146,5.2146,5.2147,5.2083,5.208,5.2077,5.2074,5.2102,5.2106,5.211,5.2196,0,0,5.2122,5.2124,0,0,0,0,0,0,0,0,5.2051,5.2057,5.2095,5.2093,5.2091,5.2108,5.212,5.2163,5.2084,5.2085,5.2076,5.2073,5.2108,5.2111,5.2123,5.2197,5.2199,5.2123,5.2125,5.2127,5.2128,0,0,0,0,0,0,0,5.2048,5.2055,5.213,5.2095,5.2093,5.2078,5.208,5.2128,5.2113,5.2085,5.208,5.2084,5.2106,5.2119,5.2123,5.2199,5.2123,5.2126,5.2129,5.213,5.2347,5.235,0,0,0,0,0,0,5.2049,5.2053,5.2129,5.2131,5.2063,5.2082,5.2084,5.2105,5.2113,5.2111,5.2087,5.2081,5.2114,5.2119,5.2124,5.2225,5.2127,5.2131,5.2133,5.2343,5.2347,5.2351,0,0,0,0,0,0,5.2047,5.2056,5.2128,5.2091,5.2099,5.2087,5.2111,5.2107,5.212,5.2114,5.2112,5.2103,5.2112,5.2118,5.2179,5.2225,5.2132,5.2136,5.2339,5.2345,5.2349,5.2428,0,0,0,0,0,0,5.2044,5.2056,5.2088,5.2092,5.2101,5.2182,5.2114,5.211,5.2127,5.212,5.2128,5.2127,5.211,5.2173,5.2183,5.2229,5.2139,5.2335,5.2342,5.2348,5.2422,5.2436,5.2448,0,0,0,0,0,5.2041,5.2109,5.2089,5.2099,5.214,5.2185,5.219,5.2169,5.2131,5.2164,5.216,5.2127,5.2219,5.218,5.219,5.2238,5.2332,5.234,5.2347,5.2416,5.2433,5.2447,0,0,0,0,0,0,5.211,5.2109,5.2087,5.2159,5.2172,5.2174,5.2213,5.2187,5.2212,5.2204,5.2177,5.218,5.2245,5.2248,5.2205,5.2323,5.2269,5.2279,5.2318,5.2334,5.2347,5.2344,5.2142,0,0,0,0,0,5.2133,5.2169,5.2166,5.223,5.2238,5.2225,5.2243,5.2226,5.2239,5.2244,5.2245,5.2259,5.2292,5.2313,5.2343,5.2423,5.2424,5.2461,5.2474,5.2485,5.2493,5.2536,5.2553,5.2376,5.2376,5.2376,0,0,5.2182,5.2186,5.221,5.2244,5.2252,5.229,5.223,5.2272,5.23,5.2251,5.2308,5.2309,5.2324,5.2394,5.2426,5.2399,5.2543,5.2494,5.2503,5.2505,5.2546,5.2563,5.2577,5.2381,5.238,5.2379,0,0,5.2291,5.2297,5.2351,5.2361,5.2375,5.2366,5.238,5.2386,5.2385,5.2442,5.2406,5.2439,5.2495,5.2507,5.2521,5.2637,5.2607,5.2647,5.2714,5.2757,5.2771,5.2783,5.2824,5.2839,5.2656,5.2656,5.2656,0,5.235,5.2405,5.2382,5.2428,5.2444,5.2402,5.2456,5.2468,5.249,5.2503,5.2473,5.2543,5.255,5.2623,5.2652,5.2664,5.2679,5.2645,5.277,5.2783,5.2794,5.2832,5.2848,5.2661,5.2661,5.266,5.266,0,5.2477,5.2516,5.2558,5.2582,5.2603,5.2653,5.2638,5.2663,5.2645,5.264,5.2699,5.2706,5.2737,5.2753,5.2736,5.2825,5.2808,5.2775,5.272,5.2816,5.2852,5.2866,5.2668,5.2666,5.2665,5.2664,0,0,5.2627,5.2639,5.2655,5.2665,5.2679,5.2709,5.2758,5.2788,5.2809,5.2828,5.2868,5.2918,5.2888,5.2903,5.2887,5.2925,5.3016,5.2887,5.2887,5.291,5.3115,5.3139,5.3156,5.2998,5.3001,5.3003,5.3113,0,5.2734,5.2817,5.2799,5.2881,5.2918,5.288,5.2922,5.2936,5.2933,5.2964,5.2962,5.2997,5.2955,5.2964,5.3,5.2998,5.3057,5.299,5.3035,5.3037,5.3031,5.3175,5.32,5.3304,5.3128,5.313,5.3132,0,5.2868,5.2892,5.2978,5.2987,5.3002,5.304,5.3067,5.3097,5.3112,5.3108,5.3126,5.3104,5.3153,5.31,5.3168,5.3123,5.3141,5.3143,5.3147,5.3149,5.3089,5.318,5.3336,5.3352,5.3154,5.3152,5.315,0,5.2969,5.3022,5.3081,5.3091,5.3103,5.3131,5.3138,5.315,5.317,5.3194,5.3206,5.3236,5.3252,5.3276,5.3262,5.3225,5.3333,5.3278,5.333,5.3331,5.3353,5.3351,5.3513,5.3368,5.3367,5.3367,5.3367,0,5.3089,5.3143,5.3126,5.3162,5.3221,5.3202,5.3261,5.3263,5.3275,5.3311,5.3281,5.3316,5.3296,5.333,5.332,5.3378,5.3386,5.3383,5.338,5.3385,5.3385,5.3395,5.3387,5.3371,5.337,5.3369,5.3369,0,5.3209,5.3201,5.3262,5.3269,5.3272,5.3316,5.3322,5.3356,5.3352,5.3398,5.3408,5.3402,5.344,5.343,5.3471,5.3464,5.3537,5.3525,5.3532,5.3528,5.3581,5.3575,5.3753,5.3775,5.3617,5.3618,5.3619,0,5.3286,5.3326,5.3339,5.3361,5.3369,5.3405,5.3425,5.3409,5.3431,5.3453,5.3484,5.352,5.3547,5.361,5.3609,5.3641,5.3628,5.3689,5.3633,5.3637,5.3628,5.3625,5.3629,5.3699,5.3701,5.3703,5.3704,0,5.3422,5.3416,5.3446,5.3476,5.3501,5.3523,5.3543,5.3563,5.3548,5.3575,5.3613,5.3634,5.3677,5.3713,5.3742,5.3749,5.3724,5.3722,5.3735,5.374,5.3742,5.3741,5.3561,5.3717,5.3716,5.3715,5.3714,5.3714,5.3522,5.3557,5.3571,5.3606,5.3619,5.3639,5.3671,5.3672,5.3704,5.3737,5.3726,5.377,5.3786,5.3823,5.3834,5.3869,5.3846,5.3866,5.3871,5.3875,5.3881,5.3738,5.3875,5.3874,5.3874,5.3874,5.3873,0,5.3656,5.3664,5.3697,5.3725,5.3753,5.3728,5.3749,5.3774,5.3814,5.3831,5.3858,5.3903,5.3939,5.3942,5.3975,5.4002,5.3992,5.4011,5.4008,5.401,5.39,5.3885,5.402,5.402,5.4019,5.4019,5.4019,5.4019,5.3729,5.3786,5.3782,5.3847,5.3854,5.3897,5.3911,5.3929,5.3943,5.3994,5.4023,5.4026,5.4038,5.4072,5.4103,5.4103,5.4116,5.414,5.4136,5.4033,5.4018,5.4004,5.3989,5.4144,5.4144,5.4242,5.4243,5.4244]},{"header":{"parameterUnit":"m.s-1","parameterCategory":1,"la1":30.2991,"la2":30.254,"lo1":-89.0895,"lo2":-89.0444,"dy":0.0017,"dx":0.0017,"nx":28,"ny":28,"refTime":"2024-09-29T03:00:00:Z","depth":0,"parameterNumber":3,"parameterNumberName":"V-component_of_WINDS"},"data":[0,0,0,0,0,0,0,0,0,0,0,0,0,0,0,0,0,0,0,0,0,0,0,0,0,0,0,0,0,0,0,0,0,0,0,0,0,0,0,0,0,0,0,0,0,0,0,0,0,0,0,0,0,0,0,0,0,0,1.9945,1.9947,0,2.0128,2.013,2.0132,2.0204,2.0203,2.0203,2.0202,2.0391,2.0397,2.0402,0,0,0,0,0,0,0,0,0,0,0,0,0,1.9656,1.9661,1.9944,1.9947,1.9949,2.0128,2.013,2.0133,2.0204,2.0203,2.0203,2.0202,2.039,2.0396,2.0403,0,0,0,0,0,0,0,0,0,0,0,0,0,1.9804,1.9662,1.9944,2.0006,2.0013,2.0127,2.013,2.0133,2.0204,2.0203,2.0202,2.0202,2.0387,2.0395,2.0404,2.0469,0,0,2.0429,2.0432,0,0,0,0,0,0,0,0,1.9796,1.9815,1.9995,2.0002,2.001,2.0142,2.0098,2.0246,2.0204,2.0132,2.0202,2.0201,2.0309,2.0324,2.036,2.0478,2.0486,2.0429,2.0434,2.0438,2.044,0,0,0,0,0,0,0,1.9785,1.9807,2.0017,1.9997,2.0007,2.0025,2.0045,2.0126,2.0222,2.0138,2.0144,2.0164,2.0313,2.0352,2.0365,2.0489,2.0429,2.0437,2.0442,2.0445,2.0668,2.0669,0,0,0,0,0,0,1.9765,1.9798,2.0011,2.0023,1.9899,2.003,2.0053,2.0101,2.0222,2.0239,2.0165,2.0167,2.0338,2.0355,2.0372,2.0456,2.0438,2.0446,2.045,2.0667,2.0668,2.067,0,0,0,0,0,0,1.9758,1.9783,2.0004,1.9912,1.9941,2.0036,2.0089,2.0105,2.0143,2.0242,2.0259,2.0186,2.0338,2.036,2.0444,2.0463,2.0449,2.0457,2.0666,2.0668,2.0669,2.0624,0,0,0,0,0,0,1.975,1.978,1.9807,1.9912,1.9946,2.0073,2.009,2.0109,2.0157,2.0162,2.0267,2.0283,2.0339,2.0431,2.0452,2.0474,2.0463,2.0665,2.0667,2.0669,2.0624,2.0624,2.0623,0,0,0,0,0,1.9739,1.9787,1.9808,1.9833,1.9981,2.0074,2.0094,2.0156,2.0158,2.0185,2.0248,2.028,2.0457,2.0439,2.0463,2.0488,2.0664,2.0666,2.0668,2.0624,2.0624,2.0623,0,0,0,0,0,0,1.9683,1.9803,1.9826,1.991,1.9981,2.0086,2.0122,2.0154,2.0227,2.0228,2.0303,2.0326,2.0403,2.0454,2.0432,2.0557,2.0563,2.057,2.0521,2.0521,2.0521,2.0507,2.047,0,0,0,0,0,1.968,1.9746,1.9847,1.9911,1.9945,2.0027,2.007,2.0112,2.0189,2.022,2.0289,2.0363,2.0435,2.0481,2.0553,2.0631,2.0655,2.066,2.066,2.0659,2.0664,2.0708,2.0711,2.0677,2.0677,2.0677,0,0,1.9676,1.9749,1.9786,1.9902,1.9962,2.0027,2.0052,2.0122,2.0171,2.0231,2.0314,2.0366,2.0453,2.0534,2.0573,2.0579,2.0678,2.0662,2.066,2.0666,2.071,2.0713,2.0716,2.0678,2.0678,2.0678,0,0,1.9701,1.9763,1.9823,1.9882,1.9972,2.0025,2.0039,2.0139,2.0176,2.026,2.0305,2.0365,2.0488,2.0548,2.0594,2.0638,2.067,2.0659,2.0657,2.0699,2.0701,2.0704,2.0719,2.0723,2.0664,2.0664,2.0664,0,1.9684,1.9785,1.9849,1.9916,1.9964,2.002,2.008,2.0134,2.0243,2.0275,2.028,2.0434,2.0496,2.0591,2.0601,2.0637,2.0655,2.0648,2.0696,2.0699,2.0703,2.0718,2.0723,2.0662,2.0662,2.0663,2.0663,0,1.9759,1.9828,1.9865,1.9967,2.0021,2.0083,2.0157,2.0202,2.0239,2.0291,2.0375,2.0452,2.0539,2.0565,2.0602,2.0664,2.0664,2.0681,2.0689,2.0703,2.0718,2.0724,2.066,2.066,2.0661,2.0661,0,0,1.9756,1.9891,1.9904,1.995,2.0052,2.0106,2.0171,2.0255,2.0292,2.0365,2.042,2.0522,2.0537,2.0589,2.0633,2.0669,2.0698,2.0682,2.0685,2.0682,2.0769,2.0756,2.0762,2.0719,2.072,2.0721,2.0762,0,1.9794,1.9912,1.997,2.0062,2.0126,2.0178,2.0234,2.0302,2.0352,2.0414,2.047,2.054,2.0555,2.0587,2.0625,2.0686,2.0716,2.0684,2.0771,2.0773,2.0747,2.077,2.0757,2.0792,2.0768,2.0769,2.077,0,1.9855,1.9926,2.0023,2.0116,2.0145,2.0194,2.0275,2.0333,2.0411,2.0445,2.0501,2.0543,2.0612,2.0613,2.0709,2.0685,2.0724,2.0759,2.0762,2.0773,2.0773,2.0781,2.0804,2.0809,2.078,2.078,2.0779,0,1.9842,1.9961,2.0035,2.0073,2.0183,2.0216,2.0263,2.034,2.0386,2.0457,2.0487,2.0565,2.0608,2.0667,2.0728,2.0724,2.0817,2.0824,2.0847,2.0845,2.0865,2.0863,2.0894,2.0889,2.0889,2.0889,2.0889,0,1.9878,1.9936,2.003,2.0075,2.0141,2.0207,2.027,2.0321,2.0389,2.0444,2.0494,2.0545,2.0623,2.0684,2.0732,2.0803,2.0822,2.0851,2.0863,2.0847,2.0843,2.0874,2.0873,2.089,2.089,2.089,2.089,0,1.9875,1.994,2.0024,2.012,2.0145,2.0189,2.0272,2.0317,2.0369,2.0438,2.0459,2.054,2.0614,2.068,2.0779,2.0811,2.0883,2.0898,2.0856,2.0863,2.0882,2.0879,2.0935,2.0945,2.0932,2.0932,2.0932,0,1.9894,1.9939,2.004,2.008,2.0126,2.0191,2.0238,2.0304,2.035,2.0441,2.0475,2.0552,2.0617,2.0732,2.08,2.0875,2.0892,2.0906,2.0904,2.0885,2.0892,2.0888,2.0893,2.0906,2.0906,2.0906,2.0905,0,1.992,1.995,2.0015,2.0091,2.0146,2.0209,2.0274,2.0304,2.0382,2.0432,2.0507,2.0558,2.0657,2.0732,2.0814,2.0863,2.0897,2.0905,2.0914,2.0898,2.0872,2.0886,2.0854,2.0904,2.0904,2.0904,2.0904,2.0904,1.9929,1.9971,2.0047,2.0118,2.0173,2.0232,2.0279,2.0336,2.04,2.0485,2.052,2.0596,2.0671,2.0784,2.0832,2.0892,2.0899,2.0912,2.0916,2.0918,2.0914,2.0861,2.0907,2.0907,2.0907,2.0907,2.0908,0,1.9957,2.0008,2.0072,2.0161,2.0216,2.0242,2.0315,2.0359,2.0425,2.0492,2.0554,2.064,2.0712,2.0785,2.0861,2.0895,2.0913,2.0913,2.0912,2.0922,2.0904,2.0889,2.0898,2.0898,2.0898,2.0898,2.0898,2.0898,1.9978,2.005,2.0088,2.0187,2.0239,2.0313,2.0352,2.0406,2.0459,2.0552,2.0613,2.0659,2.0728,2.0809,2.0876,2.0896,2.0922,2.0917,2.0941,2.0923,2.0924,2.0924,2.0909,2.0923,2.0923,2.0954,2.0954,2.0954]}]]